Location: Capannuccia
(43.7000°N, 11.3000°E)
Time: 00:27:29
(UTC+00:00)

Envisat - Visible Passes

Search period start: 01 August 2021 00:00
Search period end: 11 August 2021 00:00
Orbit: 764 x 766 km, 98.2° (Epoch: 31 July)

Date Brightness Start Highest point End Pass type
(mag) Time Alt. Az. Time Alt. Az. Time Alt. Az.
01 Aug 6.0 03:08:40 10° ENE 03:10:37 12° E 03:12:35 10° ESE visible
03 Aug 5.6 03:32:26 10° NE 03:36:17 21° E 03:40:06 10° SE visible
06 Aug 5.7 03:21:25 10° NE 03:24:40 17° E 03:27:54 10° SE visible
09 Aug 5.9 03:10:40 10° ENE 03:13:03 13° E 03:15:25 10° ESE visible
